sat.trackr.live / text

‹ back to catalog

STARLINK-34750

NORAD 65061 · 2025-165F

PAYLOAD ACTIVE UNKNOWN

§ Identity

Operator
Country
US
Launch date
2025-07-31
Launch site
AFWTR
Launch vehicle
Mass (kg)
RCS (m²)

Purposes: comms

External: N2YO · Heavens-Above · Gunter

§ Orbital elements

Epoch: 2026-09-20T22:00:03.000096Z

Period
93.90 min
Inclination
97.2855°
Eccentricity
0.0001703
Mean motion
15.33471713 rev/d
Perigee alt
464.3 km
Apogee alt
466.6 km
Semi-major
6,843.6 km
B*
-9.3451e-4
RAAN
335.1327°
Arg perigee
87.4537°
Mean anomaly
113.2595°
Rev number
579

§ Raw data

STARLINK-347501 65061U 25165F   26263.91670139 -.00030151  00000+0 -93451-3 0  99982 65061  97.2855 335.1327 0001703  87.4537 113.2595 15.33471713  5797

JSON: /api/v1/satellites/65061 · /tle

For live sub-satellite position, see the globe view (requires WebGL).

§ Visibility from observer

Set your observer location to see the next 7 days of passes ≥ 10°. The values pass through the URL so the page stays shareable.

No JS? Fill the form by hand. The geolocation button needs JavaScript.